| time (UTC) | temp C | wind direction | speed KPH | gust KPH | rain 1hr cm | rain 24hr cm | rain mn cm | humidity % | barometer mb |
| 20260904015515 | 29 | 180 | 0.0 | 1.6 | 0.00 | 0.00 | 0.00 | 84 | 1010.2 |
| 20260904014013 | 28 | 180 | 0.0 | 1.6 | 0.00 | 0.00 | 0.00 | 83 | 1010.3 |
| 20260904012511 | 28 | 135 | 0.0 | 3.2 | 0.00 | 0.00 | 0.00 | 83 | 1009.7 |
| 20260904011007 | 28 | 135 | 1.6 | 4.8 | 0.00 | 0.00 | 0.00 | 83 | 1009.7 |
| 20260904005505 | 28 | 112 | 0.0 | 4.8 | 0.00 | 0.00 | 0.00 | 83 | 1009.9 |
| 20260904004002 | 28 | 112 | 0.0 | 4.8 | 0.00 | 0.00 | 0.00 | 83 | 1010.1 |
| 20260904002501 | 28 | 112 | 1.6 | 6.4 | 0.00 | 0.00 | 0.00 | 83 | 1010.2 |
| 20260904000958 | 28 | 112 | 3.2 | 6.4 | 0.00 | 0.00 | 0.00 | 83 | 1010.4 |
| 20260903235455 | 28 | 112 | 3.2 | 6.4 | 0.00 | 0.00 | 0.00 | 82 | 1009.4 |
| 20260903233953 | 28 | 135 | 3.2 | 4.8 | 0.00 | 0.00 | 0.00 | 83 | 1010.0 |
| 20260903232452 | 28 | 135 | 1.6 | 3.2 | 0.00 | 0.00 | 0.00 | 83 | 1010.2 |
| 20260903230947 | 29 | 135 | 0.0 | 3.2 | 0.00 | 0.00 | 0.00 | 83 | 1010.5 |
| 20260903225445 | 29 | 135 | 1.6 | 6.4 | 0.00 | 0.00 | 0.00 | 83 | 1010.0 |
| 20260903222441 | 29 | 135 | 0.0 | 1.6 | 0.00 | 0.00 | 0.00 | 83 | 1010.9 |
| 20260903220945 | 29 | 135 | 0.0 | 1.6 | 0.00 | 0.00 | 0.00 | 82 | 1010.9 |
| 20260903213935 | 29 | 135 | 0.0 | 3.2 | 0.00 | 0.00 | 0.00 | 82 | 1010.4 |
| 20260903212436 | 29 | 135 | 1.6 | 3.2 | 0.00 | 0.00 | 0.00 | 82 | 1010.7 |
| 20260903210927 | 29 | 135 | 1.6 | 1.6 | 0.00 | 0.00 | 0.00 | 81 | 1010.9 |
| 20260903205430 | 29 | 135 | 0.0 | 0.0 | 0.00 | 0.00 | 0.00 | 81 | 1010.3 |
| 20260903203922 | 29 | 315 | 0.0 | 3.2 | 0.00 | 0.00 | 0.00 | 81 | 1010.2 |
| 20260903202422 | 29 | 33 | 1.6 | 3.2 | 0.00 | 0.00 | 0.00 | 80 | 1010.1 |
| 20260903200921 | 29 | 45 | 0.0 | 3.2 | 0.00 | 0.00 | 0.00 | 81 | 1009.6 |
| 20260903195415 | 30 | 90 | 0.0 | 3.2 | 0.00 | 0.00 | 0.00 | 80 | 1009.6 |
| 20260903193912 | 30 | 180 | 0.0 | 1.6 | 0.00 | 0.00 | 0.00 | 80 | 1009.9 |
| 20260903192411 | 30 | 180 | 0.0 | 1.6 | 0.00 | 0.00 | 0.00 | 80 | 1009.1 |
| 20260903190907 | 30 | 180 | 1.6 | 1.6 | 0.00 | 0.00 | 0.00 | 80 | 1009.5 |
| 20260903185405 | 30 | 180 | 0.0 | 1.6 | 0.00 | 0.00 | 0.00 | 80 | 1009.5 |
| 20260903183902 | 30 | 180 | 1.6 | 1.6 | 0.00 | 0.00 | 0.00 | 80 | 1010.0 |
| 20260903182401 | 30 | 315 | 0.0 | 3.2 | 0.00 | 0.00 | 0.00 | 80 | 1009.8 |
| 20260903180857 | 30 | 315 | 1.6 | 4.8 | 0.00 | 0.00 | 0.00 | 80 | 1009.4 |
| 20260903175355 | 30 | 315 | 0.0 | 1.6 | 0.00 | 0.00 | 0.00 | 79 | 1009.7 |
| 20260903173852 | 30 | 315 | 0.0 | 1.6 | 0.00 | 0.00 | 0.00 | 79 | 1009.5 |
| 20260903172351 | 30 | 315 | 1.6 | 3.2 | 0.00 | 0.00 | 0.00 | 80 | 1009.5 |
| 20260903170847 | 30 | 315 | 0.0 | 1.6 | 0.00 | 0.00 | 0.00 | 80 | 1009.5 |
| 20260903165345 | 30 | 315 | 0.0 | 3.2 | 0.00 | 0.00 | 0.00 | 80 | 1009.5 |
| 20260903163842 | 30 | 315 | 1.6 | 4.8 | 0.00 | 0.00 | 0.00 | 79 | 1009.2 |
| 20260903162341 | 30 | 315 | 0.0 | 3.2 | 0.00 | 0.00 | 0.00 | 79 | 1009.6 |
| 20260903160837 | 30 | 315 | 0.0 | 4.8 | 0.00 | 0.00 | 0.00 | 80 | 1009.7 |
| 20260903155335 | 30 | 315 | 3.2 | 6.4 | 0.00 | 0.00 | 0.00 | 80 | 1009.7 |
| 20260903153832 | 30 | 315 | 1.6 | 3.2 | 0.00 | 0.00 | 0.00 | 80 | 1009.6 |
| 20260903152331 | 30 | 315 | 3.2 | 3.2 | 0.00 | 0.00 | 0.00 | 80 | 1009.3 |
| 20260903150827 | 30 | 315 | 1.6 | 3.2 | 0.00 | 0.00 | 0.00 | 80 | 1009.3 |
| 20260903145325 | 30 | 315 | 1.6 | 1.6 | 0.00 | 0.00 | 0.00 | 81 | 1009.6 |
| 20260903143822 | 30 | 315 | 1.6 | 3.2 | 0.00 | 0.00 | 0.00 | 81 | 1010.0 |
| 20260903142321 | 30 | 315 | 1.6 | 3.2 | 0.00 | 0.00 | 0.00 | 82 | 1010.1 |
| 20260903140817 | 30 | 315 | 0.0 | 1.6 | 0.00 | 0.00 | 0.00 | 82 | 1010.1 |
| 20260903135315 | 30 | 315 | 1.6 | 3.2 | 0.00 | 0.00 | 0.00 | 82 | 1010.3 |
| 20260903133812 | 30 | 315 | 3.2 | 4.8 | 0.00 | 0.00 | 0.00 | 82 | 1010.3 |
| 20260903132311 | 30 | 0 | 1.6 | 3.2 | 0.00 | 0.00 | 0.00 | 82 | 1010.4 |
| 20260903130807 | 30 | 180 | 1.6 | 3.2 | 0.00 | 0.00 | 0.00 | 82 | 1010.4 |
| 20260903123759 | 30 | 225 | 1.6 | 3.2 | 0.00 | 0.00 | 0.00 | 82 | 1010.6 |
| 20260903122258 | 30 | 37 | 3.2 | 4.8 | 0.00 | 0.00 | 0.00 | 81 | 1010.6 |
| 20260903120754 | 30 | 0 | 4.8 | 4.8 | 0.00 | 0.00 | 0.00 | 81 | 1010.9 |
| 20260903115252 | 30 | 0 | 1.6 | 4.8 | 0.00 | 0.00 | 0.00 | 81 | 1010.9 |
| 20260903113749 | 30 | 225 | 1.6 | 1.6 | 0.00 | 0.00 | 0.00 | 81 | 1011.1 |
| 20260903112248 | 30 | 225 | 3.2 | 3.2 | 0.00 | 0.00 | 0.00 | 81 | 1011.4 |
| 20260903110744 | 30 | 45 | 0.0 | 1.6 | 0.00 | 0.00 | 0.00 | 81 | 1011.2 |
| 20260903105242 | 30 | 45 | 0.0 | 1.6 | 0.00 | 0.00 | 0.00 | 81 | 1011.1 |
| 20260903103739 | 30 | 0 | 0.0 | 3.2 | 0.00 | 0.00 | 0.00 | 81 | 1011.0 |
| 20260903102238 | 30 | 0 | 1.6 | 1.6 | 0.00 | 0.00 | 0.00 | 81 | 1010.7 |
| 20260903100734 | 30 | 0 | 0.0 | 3.2 | 0.00 | 0.00 | 0.00 | 81 | 1010.4 |
| 20260903095232 | 30 | 0 | 1.6 | 3.2 | 0.00 | 0.00 | 0.00 | 81 | 1010.4 |
| 20260903093729 | 30 | 45 | 0.0 | 1.6 | 0.00 | 0.00 | 0.00 | 81 | 1010.5 |
| 20260903092228 | 30 | 315 | 0.0 | 4.8 | 0.00 | 0.00 | 0.00 | 81 | 1010.4 |
| 20260903090724 | 30 | 202 | 1.6 | 4.8 | 0.00 | 0.00 | 0.00 | 80 | 1010.2 |
| 20260903085222 | 30 | 202 | 1.6 | 4.8 | 0.00 | 0.00 | 0.00 | 80 | 1010.6 |
| 20260903083719 | 30 | 135 | 0.0 | 3.2 | 0.00 | 0.00 | 0.00 | 80 | 1010.4 |
| 20260903082218 | 30 | 45 | 1.6 | 3.2 | 0.00 | 0.00 | 0.00 | 80 | 1010.2 |
| 20260903080714 | 31 | 22 | 3.2 | 3.2 | 0.00 | 0.00 | 0.00 | 81 | 1010.3 |
| 20260903075212 | 31 | 45 | 4.8 | 8.0 | 0.00 | 0.00 | 0.00 | 81 | 1010.1 |
| 20260903073709 | 31 | 270 | 4.8 | 8.0 | 0.00 | 0.00 | 0.00 | 82 | 1009.8 |
| 20260903072208 | 31 | 270 | 1.6 | 8.0 | 0.00 | 0.00 | 0.00 | 83 | 1009.8 |
| 20260903070704 | 31 | 270 | 1.6 | 3.2 | 0.00 | 0.00 | 0.00 | 84 | 1009.6 |
| 20260903065202 | 31 | 270 | 1.6 | 4.8 | 0.00 | 0.00 | 0.00 | 84 | 1009.5 |
| 20260903063659 | 31 | 270 | 3.2 | 4.8 | 0.00 | 0.00 | 0.00 | 84 | 1009.5 |
| 20260903062158 | 31 | 270 | 0.0 | 4.8 | 0.00 | 0.00 | 0.00 | 84 | 1009.4 |
| 20260903060654 | 31 | 270 | 0.0 | 3.2 | 0.00 | 0.00 | 0.00 | 84 | 1009.3 |
| 20260903055152 | 31 | 270 | 1.6 | 1.6 | 0.00 | 0.00 | 0.00 | 83 | 1009.4 |
| 20260903053649 | 31 | 270 | 1.6 | 3.2 | 0.00 | 0.00 | 0.00 | 82 | 1009.4 |
| 20260903052148 | 31 | 270 | 0.0 | 1.6 | 0.00 | 0.00 | 0.00 | 81 | 1009.5 |
| 20260903050644 | 31 | 270 | 1.6 | 3.2 | 0.00 | 0.00 | 0.00 | 81 | 1009.6 |
| 20260903045142 | 31 | 270 | 0.0 | 1.6 | 0.00 | 0.00 | 0.00 | 80 | 1009.7 |
| 20260903043639 | 30 | 270 | 1.6 | 3.2 | 0.00 | 0.00 | 0.00 | 80 | 1009.6 |
| 20260903042138 | 30 | 270 | 0.0 | 4.8 | 0.00 | 0.00 | 0.00 | 80 | 1009.8 |
| 20260903040634 | 30 | 270 | 3.2 | 4.8 | 0.00 | 0.00 | 0.00 | 80 | 1009.8 |
| 20260903035132 | 30 | 270 | 1.6 | 4.8 | 0.00 | 0.00 | 0.00 | 80 | 1009.7 |
| 20260903033629 | 30 | 270 | 1.6 | 6.4 | 0.00 | 0.00 | 0.00 | 80 | 1009.5 |
| 20260903032128 | 30 | 270 | 4.8 | 6.4 | 0.00 | 0.00 | 0.00 | 81 | 1009.5 |
| 20260903030624 | 30 | 270 | 0.0 | 1.6 | 0.00 | 0.00 | 0.00 | 80 | 1009.6 |
| 20260903025122 | 30 | 270 | 1.6 | 3.2 | 0.00 | 0.00 | 0.00 | 81 | 1009.8 |
| 20260903023619 | 30 | 270 | 3.2 | 4.8 | 0.00 | 0.00 | 0.00 | 81 | 1009.6 |
| 20260903022118 | 30 | 270 | 0.0 | 6.4 | 0.00 | 0.00 | 0.00 | 81 | 1009.8 |
| 20260903020614 | 30 | 270 | 0.0 | 4.8 | 0.00 | 0.00 | 0.00 | 81 | 1009.7 |